Location: Noordwijk
(52.2400°N, 4.4500°E)
Time: 21:59:31
(UTC+00:00)

FO-29 - Pass Details

Date: 08 December 2022
Orbit: 799 x 1322 km, 98.5° (Epoch: 01 February)

Event Time Altitude Azimuth Distance (km) Brightness Sun altitude
Rises 05:15:50 0° 17° (NNE) 3,879 12.7 -20.5°
Reaches altitude 10° 05:18:38 10° 23° (NNE) 2,839 12.1 -20.1°
Maximum altitude 05:24:43 48° 97° (E) 1,211 10.4 -19.2°
Drops below altitude 10° 05:30:07 10° 171° (S) 2,516 11.9 -18.3°
Sets 05:32:27 0° 178° (S) 3,400 12.6 -18.0°
